Location: Ferintosh
(52.7647°N, 112.9692°W)
Time: 18:09:36
(UTC+00:00)

Explorer 7 - Pass Details

Date: 27 May 2024
Orbit: 466 x 622 km, 50.3° (Epoch: 15 June)

Event Time Altitude Azimuth Distance (km) Brightness Sun altitude
Rises 05:43:12 0° 239° (WSW) 2,514 10.1 -12.4°
Reaches altitude 10° 05:45:23 10° 232° (SW) 1,653 9.1 -12.5°
Maximum altitude 05:48:55 41° 161° (SSE) 725 6.9 -12.7°
Drops below altitude 10° 05:52:35 10° 90° (E) 1,726 9.1 -12.9°
Sets 05:54:55 0° 84° (E) 2,643 10.1 -13.1°
